Mitchell, SD

7:44 AM CDT on October 16, 2019 (GMT -0500)
Mitchell Municipal

Weather History for KMHE - May, 2019

Change the Weather History Date:

Thursday, May 16, 2019

  Actual Average Record
Temperature  
Mean Temperature 67 °F 60 °F  
Max Temperature 79 °F 71 °F 99 °F (1934)
Min Temperature 55 °F 48 °F 25 °F (1929)
Degree Days  
Heating Degree Days 0 7  
Month to date heating degree days 183 138  
Since 1 July heating degree days 7871 7138  
Cooling Degree Days 2 1  
Month to date cooling degree days 7 13  
Year to date cooling degree days 7 15  
Growing Degree Days 17 (Base 50)    
Moisture  
Dew Point 55 °F    
Average Humidity 69    
Maximum Humidity 87    
Minimum Humidity 50    
Precipitation  
Precipitation 0.00 in 0.07 in 2.50 in (2004)
Month to date precipitation 1.76 1.22  
Year to date precipitation 9.34 5.02  
Snow  
Snow 0.00 in - T in (1929)
Month to date snowfall 0.0  
Since 1 July snowfall 67.6  
Snow Depth 0.00 in    
Sea Level Pressure  
Sea Level Pressure 29.74 in    
Wind  
Wind Speed 13 mph (North)    
Max Wind Speed 25 mph    
Max Gust Speed 35 mph    
Visibility 10 miles    
Events      
T = Trace of Precipitation, MM = Missing Value Source: NWS Daily Summary

Daily Weather History Graph

Daily Weather History Graph

Search for Another Location

Airport or City:

Astronomy

May. 16, 2019 Rise Set
Actual Time 6:05 AM CDT 8:51 PM CDT
Civil Twilight 5:32 AM CDT 9:25 PM CDT
Nautical Twilight 4:50 AM CDT 10:07 PM CDT
Astronomical Twilight 4:02 AM CDT 10:56 PM CDT
Moon 6:26 PM CDT 5:12 AM CDT
Length of Visible Light 15h 52m
Length of Day
14h 45m
Waxing Gibbous, 94% of the Moon is Illuminated
May 16
Waxing Gibbous
May 18
Full
May 26
Last Quarter
Jun 3
New
Jun 10
First Quarter

Hourly Weather History & Observations

Time (CDT) Temp. Dew Point Humidity Pressure Visibility Wind Dir Wind Speed Gust Speed Precip Events Conditions
12:53 AM 70.0 °F 57.0 °F 63% 29.64 in 10.0 mi South 12.7 mph 20.7 mph N/A   Clear
1:53 AM 69.1 °F 57.9 °F 68% 29.64 in 10.0 mi South 10.4 mph - N/A   Clear
2:53 AM 64.0 °F 57.9 °F 80% 29.64 in 10.0 mi West 4.6 mph - N/A   Clear
3:53 AM 64.0 °F 57.9 °F 80% 29.64 in 10.0 mi West 6.9 mph - N/A   Clear
4:53 AM 59.0 °F 55.0 °F 87% 29.66 in 10.0 mi NW 8.1 mph - N/A   Clear
5:53 AM 59.0 °F 55.9 °F 90% 29.68 in 10.0 mi NNW 8.1 mph - N/A   Clear
6:53 AM 60.1 °F 55.9 °F 86% 29.70 in 10.0 mi NNW 6.9 mph - N/A   Clear
7:53 AM 64.0 °F 57.9 °F 80% 29.72 in 10.0 mi NNW 4.6 mph - N/A   Clear
8:53 AM 68.0 °F 59.0 °F 73% 29.74 in 10.0 mi NNW 9.2 mph - N/A   Clear
9:53 AM 70.0 °F 57.0 °F 63% 29.74 in 10.0 mi North 10.4 mph - N/A   Clear
10:53 AM 70.0 °F 57.0 °F 63% 29.77 in 10.0 mi North 12.7 mph - N/A   Clear
11:53 AM 72.0 °F 55.9 °F 57% 29.78 in 10.0 mi North 18.4 mph 25.3 mph N/A   Clear
12:53 PM 73.9 °F 57.0 °F 55% 29.78 in 10.0 mi North 18.4 mph 24.2 mph N/A   Clear
1:53 PM 77.0 °F 57.9 °F 52% 29.78 in 10.0 mi NNE 12.7 mph - N/A   Clear
2:53 PM 75.9 °F 59.0 °F 56% 29.77 in 10.0 mi NNE 13.8 mph - N/A   Clear
3:53 PM 71.1 °F 55.0 °F 57% 29.81 in 10.0 mi North 21.9 mph 29.9 mph N/A   Clear
4:53 PM 72.0 °F 55.0 °F 55% 29.80 in 10.0 mi NNE 17.3 mph 27.6 mph N/A   Clear
5:53 PM 72.0 °F 55.0 °F 55% 29.79 in 10.0 mi NNE 18.4 mph 27.6 mph N/A   Clear
6:53 PM 68.0 °F 52.0 °F 56% 29.78 in 10.0 mi NE 16.1 mph - N/A   Clear
7:53 PM 64.9 °F 51.1 °F 61% 29.78 in 10.0 mi NE 19.6 mph 28.8 mph N/A   Clear
8:53 PM 61.0 °F 50.0 °F 67% 29.78 in 10.0 mi NNE 21.9 mph 31.1 mph N/A   Clear
9:53 PM 57.9 °F 46.0 °F 65% 29.80 in 10.0 mi NE 15.0 mph 25.3 mph N/A   Clear
10:53 PM 57.0 °F 44.1 °F 62% 29.81 in 10.0 mi NE 12.7 mph 20.7 mph N/A   Clear
11:53 PM 55.0 °F 44.1 °F 67% 29.81 in 10.0 mi ENE 8.1 mph - N/A   Clear